"TOA5","AWS1","CR1000","7964","CR1000.Std.14","CPU:AWS1_114.CR1","64363","TBL110"
"TIMESTAMP","RECORD","Wind_spd_WVc(1)","Wind_spd_WVc(2)","Air_Temp_Avg","Humidity_Avg","SW_upper_Wm2_Avg","Rain_Tot","Press_Avg","Issui_Tot","Depth_cm","SR50A_Raw","Quality","Ground_Temp_Avg(1)","Ground_Temp_Avg(2)","SW_lower_Wm2_Avg","Albedo_Avg","SWC_per(1)","SWC_per(2)","Period(1)","Period(2)"
"TS","RN","","","","","","","","","","","","","","","","","","",""
"","","WVc","WVc","Avg","Avg","Avg","Tot","Avg","Tot","Smp","Smp","Smp","Avg","Avg","Avg","Avg","Smp","Smp","Smp","Smp"
"2018-06-30 00:00:00",347245,0.365,112.1,16.89,100,0.8332201,0,869.4244,0,20.49,2.886,256,16.98,17.36,0.5684311,0.357,53.5,61.76,34.15,36.08
"2018-06-30 00:10:00",347246,0.539,144,16.91,100,0.6249151,0,869.6624,0,17.89,2.913,289,16.98,17.37,0.3410587,0.207,53.45,61.7,34.14,36.06
"2018-06-30 00:20:00",347247,0.511,156.8,16.84,100,0,0,869.675,0,-8.69,3.17,202,16.98,17.41,0.6176952,0,53.45,61.64,34.14,36.05
"2018-06-30 00:30:00",347248,0.115,115.6,16.69,100,0.07860567,0,869.934,0,-13.36,3.218,186,16.99,17.37,0.3979018,0.321,53.33,61.58,34.11,36.04
"2018-06-30 00:40:00",347249,0.261,135.2,16.4,100,0.02751198,0,869.934,0,-16.66,3.25,175,17.01,17.31,0.2046352,0.112,53.33,61.52,34.11,36.02
"2018-06-30 00:50:00",347250,0.447,118.4,16.35,100,0,0,869.9424,0,26.04,2.836,272,17.01,17.28,0.07958036,0,53.33,61.04,34.11,35.92
"2018-06-30 01:00:00",347251,0.527,135,16.48,100,0.1375599,0,869.9951,0,18.57,2.907,205,17.01,17.28,0.3751645,1.157,53.33,61.04,34.11,35.92
"2018-06-30 01:10:00",347252,0.372,41.07,16.84,100,0.180793,0,870.1762,0,28.46,2.81,290,17.01,17.28,0.5002194,1.752,53.33,60.92,34.11,35.89
"2018-06-30 01:20:00",347253,0.658,130.6,16.92,100,0.1886536,0,870.2205,0,-17.45,3.255,190,17.01,17.28,0.4092704,1.069,53.28,60.86,34.1,35.88
"2018-06-30 01:30:00",347254,0.664,147.7,17.17,100,0.7506841,0,870.3174,0,30.51,2.788,302,17.01,17.28,0.5797998,0.917,53.28,60.8,34.1,35.86
"2018-06-30 01:40:00",347255,0.674,110.1,17.25,100,0.5070065,0,870.3489,0,28.75,2.805,242,17.01,17.25,0.3789541,0.894,52.94,60.74,34.02,35.85
"2018-06-30 01:50:00",347256,0.485,57.79,17.3,100,0.01572113,0,870.4395,0,-6.814,3.149,196,17.01,17.21,0.3334796,0.112,52.77,60.68,33.98,35.83
"2018-06-30 02:00:00",347257,0.354,358.4,17.17,100,0,0,870.4395,0,-8.38,3.167,182,17.01,17.22,0.2652679,0,52.77,60.68,33.98,35.83
"2018-06-30 02:10:00",347258,0.426,144.8,17.14,100,0.1454205,0,870.4775,0,26.75,2.824,293,17.01,17.23,0.4092704,1.35,52.66,60.62,33.95,35.82
"2018-06-30 02:20:00",347259,0.513,116.4,17.35,100,0.2987016,0,870.507,0,21.39,2.876,256,17,17.23,0.5153776,1.84,52.6,60.56,33.94,35.81
"2018-06-30 02:30:00",347260,0.534,80.8,17.41,100,0.1218388,0,870.5743,0,-16.77,3.246,186,17.01,17.19,0.4471658,1.093,52.55,60.56,33.92,35.81
"2018-06-30 02:40:00",347261,0.269,146.2,17.14,100,0,0,870.5154,0,-8.25,3.165,198,17.01,17.19,0.2501097,0,52.55,60.5,33.92,35.79
"2018-06-30 02:50:00",347262,0.654,148.3,17.39,100,0,0,870.4354,0,27.78,2.814,280,16.99,17.19,0.8678049,0,52.49,60.38,33.91,35.77
"2018-06-30 03:00:00",347263,0.36,86.7,17.24,100,0.0707451,0,870.448,0,20.63,2.884,233,16.99,17.19,0.5608521,0.723,52.44,60.15,33.89,35.71
"2018-06-30 03:10:00",347264,0.263,12.22,17.25,100,0.235817,0,870.5933,0,22.01,2.87,244,17.01,17.19,0.511588,2.169,52.44,60.09,33.89,35.7
"2018-06-30 03:20:00",347265,0.375,90.4,17.2,100,0.01179085,0,870.6818,0,31.46,2.78,472,17.01,17.19,0.3031633,0.145,52.38,60.03,33.88,35.69
"2018-06-30 03:30:00",347266,0.505,122.1,17.13,100,0,0,870.5891,0,-6.645,3.149,188,17.01,17.19,0.4282182,0,52.44,60.03,33.89,35.69
"2018-06-30 03:40:00",347267,0.69,138.9,17.14,100,0,0,870.5511,0,-12.29,3.204,181,17.01,17.18,0.6101161,0,52.38,59.97,33.88,35.67
"2018-06-30 03:50:00",347268,0.389,144.6,17.13,100,0,0,870.6334,0,-14.48,3.225,184,17,17.17,0.7124337,0,52.32,59.97,33.87,35.67
"2018-06-30 04:00:00",347269,0.301,95,17.11,100,0,0,870.6923,0,25.79,2.835,273,17,17.17,0.7010651,0,52.32,59.91,33.87,35.66
"2018-06-30 04:10:00",347270,0.307,118.6,17.11,100,0,0,870.7281,0,21.92,2.873,264,17.01,17.11,0.6972755,0,52.27,59.85,33.85,35.64
"2018-06-30 04:20:00",347271,0.502,152.6,17.07,100,0,0,870.6523,0,22.11,2.869,268,17,17.1,0.8374885,0,52.27,59.79,33.85,35.63
"2018-06-30 04:30:00",347272,0.529,134,17.69,93.5,0.9511286,0,870.4711,0,-13.8,3.216,183,17.01,17.1,1.887191,1.6,52.21,59.79,33.84,35.63
"2018-06-30 04:40:00",347273,0.424,122.8,17.51,96.2,1.186946,0,870.5659,0,-13.37,3.213,187,17.01,17.1,1.390762,1.233,52.27,59.73,33.85,35.62
"2018-06-30 04:50:00",347274,0.19,89.6,17.57,95,2.876967,0,870.6691,0,26.15,2.829,392,17.01,17.1,1.610555,0.609,52.21,59.73,33.84,35.62
"2018-06-30 05:00:00",347275,0.152,350.3,17.56,95.8,8.080663,0,870.6923,0,25.22,2.838,326,17,17.1,2.125932,0.276,52.16,59.73,33.83,35.62
"2018-06-30 05:10:00",347276,0.334,244.4,17.56,96.5,17.81991,0,870.6965,0,18.31,2.905,201,16.96,17.1,3.46743,0.195,52.21,59.67,33.84,35.6
"2018-06-30 05:20:00",347277,0.169,97.1,17.41,99.5,20.85801,0,870.7239,0,19.21,2.898,210,16.95,17.1,3.410587,0.164,52.16,59.67,33.83,35.6
"2018-06-30 05:30:00",347278,0.356,98.2,17.3,100,34.85768,0,870.7744,0,-12.28,3.202,175,16.95,17.1,5.221987,0.15,52.1,59.61,33.81,35.59
"2018-06-30 05:40:00",347279,0.248,79.11,17.42,100,41.99508,0,870.9198,0,-14.65,3.225,170,16.96,17.1,6.161794,0.147,52.1,59.67,33.81,35.6
"2018-06-30 05:50:00",347280,0.456,103.7,17.38,100,53.38897,0,870.9451,0,-12.05,3.2,169,16.95,17.11,7.533607,0.141,52.1,59.61,33.81,35.59
"2018-06-30 06:00:00",347281,0.49,93,17.38,100,81.94641,0,870.9451,0,-13.85,3.217,169,16.94,17.1,11.35347,0.139,52.1,59.67,33.81,35.6
"2018-06-30 06:10:00",347282,0.375,77.91,17.53,100,81.69881,0,870.9451,0,20.25,2.886,213,16.94,17.08,10.98209,0.134,52.1,59.61,33.81,35.59
"2018-06-30 06:20:00",347283,0.619,112.9,17.62,100,106.3299,0,870.9514,0,19.3,2.895,201,16.94,17.05,19.55782,0.18,52.05,59.61,33.8,35.59
"2018-06-30 06:30:00",347284,0.433,106.8,17.93,100,114.9333,0,870.9682,0,22.66,2.859,245,16.98,17.07,20.63405,0.178,52.05,59.61,33.8,35.59
"2018-06-30 06:40:00",347285,0.246,84.4,18.31,96.5,87.92044,0,871.1388,0,-15.31,3.227,188,16.96,17.04,11.41789,0.13,52.05,59.56,33.8,35.58
"2018-06-30 06:50:00",347286,0.272,87.8,18.28,97.5,111.0737,0,871.1978,0,18.4,2.9,204,16.98,17.04,15.86681,0.142,52.05,59.56,33.8,35.58
"2018-06-30 07:00:00",347287,0.457,103.3,18.46,98.6,159.7778,0,871.3536,0,-15.25,3.225,191,16.97,17.03,22.32797,0.14,52.05,59.56,33.8,35.58
"2018-06-30 07:10:00",347288,0.447,90.4,18.68,98.7,236.8703,0,871.4568,0,22.93,2.854,353,16.97,17.04,37.59604,0.157,52.05,59.56,33.8,35.58
"2018-06-30 07:20:00",347289,0.758,114.9,19.11,90.7,261.301,0,871.5348,0,19.9,2.881,238,16.94,17.05,38.0432,0.145,52.05,59.56,33.8,35.58
"2018-06-30 07:30:00",347290,0.434,135.4,19.34,88.4,275.0019,0,871.4737,0,24.5,2.835,270,16.93,17.03,39.17627,0.142,52.05,59.5,33.8,35.56
"2018-06-30 07:40:00",347291,0.404,97.3,19.68,88,274.601,0,871.459,0,22.93,2.85,281,16.93,17.02,39.2748,0.143,51.99,59.5,33.79,35.56
"2018-06-30 07:50:00",347292,0.522,62.69,19.74,89,287.6535,0,871.4484,0,21.7,2.861,241,16.93,16.99,40.05165,0.139,51.99,59.5,33.79,35.56
"2018-06-30 08:00:00",347293,0.532,359.8,19.87,86.3,277.1793,0,871.5222,0,22.62,2.853,270,16.96,16.94,38.79353,0.14,51.99,59.44,33.79,35.55
"2018-06-30 08:10:00",347294,0.377,340.9,19.5,95.7,257.351,0,871.7032,0,-9.38,3.163,179,17.04,16.93,35.92485,0.14,51.99,59.38,33.79,35.54
"2018-06-30 08:20:00",347295,0.392,346.2,19.51,98.3,303.6773,0,871.7032,0,25.93,2.821,273,17.05,16.93,42.91655,0.141,51.94,59.38,33.77,35.54
"2018-06-30 08:30:00",347296,0.256,30.48,19.79,96.2,269.5899,0,871.7547,0,-14.65,3.213,192,17.02,16.93,37.2095,0.138,51.94,59.38,33.77,35.54
"2018-06-30 08:40:00",347297,0.099,7.233,19.61,99.8,166.9191,0,871.9232,0,24.38,2.837,265,17.01,16.93,21.73302,0.128,51.94,59.38,33.77,35.54
"2018-06-30 08:50:00",347298,0.15,91.5,19.41,100,169.0769,0,871.9531,0,11.11,2.965,326,17,16.97,23.21473,0.135,51.94,59.38,33.77,35.54
"2018-06-30 09:00:00",347299,0.377,343.7,19.39,97,206.2731,0,872.0271,0,24.26,2.838,271,17.05,16.97,29.80474,0.144,51.94,59.32,33.77,35.52
"2018-06-30 09:10:00",347300,0.373,56.01,19.79,95.5,477.4862,0,872.1787,0,26.54,2.813,241,17.12,16.96,69.5646,0.146,51.94,59.38,33.77,35.54
"2018-06-30 09:20:00",347301,0.337,38.4,20.29,89.1,435.8291,0,872.225,0,17.6,2.898,244,17.06,16.93,61.51562,0.141,51.94,59.32,33.77,35.52
"2018-06-30 09:30:00",347302,0.232,326.3,20.04,93.1,181.7127,0,872.2679,0,29.55,2.785,274,17.12,16.94,23.87411,0.131,51.88,59.32,33.76,35.52
"2018-06-30 09:40:00",347303,0.232,74,19.95,96.3,248.8262,0,872.3699,0,17.82,2.897,239,17.19,16.97,35.32989,0.142,51.88,59.38,33.76,35.54
"2018-06-30 09:50:00",347304,0.245,107.8,20.44,94.4,528.403,0,872.2761,0,17.38,2.898,226,17.18,16.95,77.55675,0.147,51.88,59.38,33.76,35.54
"2018-06-30 10:00:00",347305,0.312,94.1,20.91,87,535.3989,0,872.3837,0,318,0,0,17.25,16.93,79.82668,0.148,51.88,59.32,33.76,35.52
"2018-06-30 10:10:00",347306,0.483,92.9,21.24,82.7,690.6254,0,872.4301,0,17.9,2.89,289,17.24,16.93,101.4612,0.147,51.77,59.26,33.73,35.51
"2018-06-30 10:20:00",347307,0.678,126.1,21.25,78.49,533.6775,0,872.4158,0,-14.94,3.207,178,17.25,16.93,76.80641,0.144,51.82,59.32,33.75,35.52
"2018-06-30 10:30:00",347308,0.353,142.8,21.41,77.44,573.8961,0,872.416,0,-6.519,3.124,172,17.32,16.93,83.23727,0.145,51.82,59.26,33.75,35.51
"2018-06-30 10:40:00",347309,0.371,92.4,21.61,76.37,426.6401,0,872.4142,0,-14.21,3.199,182,17.36,16.93,59.11305,0.137,51.77,59.26,33.73,35.51
"2018-06-30 10:50:00",347310,0.454,33.76,21.16,81.1,266.7719,0,872.4433,0,-12.49,3.185,188,17.4,16.9,36.77749,0.137,51.77,59.26,33.73,35.51
"2018-06-30 11:00:00",347311,0.375,64.93,21.12,80.7,519.4223,0,872.4586,0,21.78,2.852,265,17.42,16.88,77.54538,0.148,51.77,59.26,33.73,35.51
"2018-06-30 11:10:00",347312,0.515,124.8,21.47,77.83,537.651,0,872.4391,0,-12.49,3.181,177,17.43,16.9,78.97403,0.145,51.71,59.26,33.72,35.51
"2018-06-30 11:20:00",347313,0.453,119,21.92,77.81,754.4493,0,872.4415,0,26.23,2.805,259,17.48,16.91,111.2571,0.143,51.71,59.2,33.72,35.5
"2018-06-30 11:30:00",347314,0.564,122.7,22.42,72.24,926.4385,0,872.428,0,-12.01,3.168,175,17.56,16.92,142.1419,0.151,51.71,59.2,33.72,35.5
"2018-06-30 11:40:00",347315,0.732,144.6,22.91,68.76,858.1656,0,872.2459,0,-18.07,3.229,206,17.56,16.93,128.2229,0.145,51.71,59.2,33.72,35.5
"2018-06-30 11:50:00",347316,0.25,141.8,23.25,69.83,1012.803,0,872.1631,0,30.42,2.759,310,17.66,16.9,154.6284,0.153,51.71,59.2,33.72,35.5
"2018-06-30 12:00:00",347317,0.699,32.69,23.51,66.12,956.5367,0,872.1749,0,-10.51,3.152,180,17.67,16.84,142.8846,0.149,51.66,59.2,33.7,35.5
"2018-06-30 12:10:00",347318,0.436,74.9,23.65,67.33,845.8737,0,872.1576,0,-13.35,3.179,179,17.69,16.82,125.5081,0.147,51.6,59.14,33.69,35.48
"2018-06-30 12:20:00",347319,0.438,325.5,22.69,72.47,374.2684,0,872.129,0,-8.47,3.141,169,17.78,16.82,47.19436,0.122,51.55,59.14,33.68,35.48
"2018-06-30 12:30:00",347320,0.406,320.5,21.09,82.3,109.4802,0,872.1613,0,-17.19,3.232,198,17.87,16.85,9.265281,0.07,51.6,59.14,33.69,35.48
"2018-06-30 12:40:00",347321,0.372,300.6,20.71,88.3,503.5917,0,872.3148,0,-14.53,3.203,188,17.92,16.83,78.5832,0.151,51.6,59.14,33.69,35.48
"2018-06-30 12:50:00",347322,0.435,78.57,22,82.3,764.7842,0,872.4384,0,-18.43,3.232,190,18.01,16.87,120.5715,0.156,51.55,59.14,33.68,35.48
"2018-06-30 13:00:00",347323,0.286,58.43,22.86,77.78,697.5345,0,872.452,0,-16.29,3.21,184,18.05,16.89,104.47,0.146,51.55,59.08,33.68,35.47
"2018-06-30 13:10:00",347324,0.682,132.2,22.75,71.67,978.5109,0,872.3829,0,18.69,2.876,256,18.15,16.89,151.881,0.155,51.49,59.08,33.66,35.47
"2018-06-30 13:20:00",347325,0.587,103.3,23.24,70,862.992,0,872.2067,0,318,0,0,18.2,16.86,130.3109,0.148,51.49,59.08,33.66,35.47
"2018-06-30 13:30:00",347326,0.671,119.9,23.17,71.5,403.7737,0,872.2667,0,23.25,2.832,252,18.29,16.85,54.50875,0.129,51.49,59.08,33.66,35.47
"2018-06-30 13:40:00",347327,0.441,15.1,22.68,70.29,610.5106,0,872.2932,0,-18.28,3.232,177,18.34,16.88,92.66186,0.149,51.44,59.08,33.65,35.47
"2018-06-30 13:50:00",347328,0.195,311.7,22.57,72.92,597.517,0,872.4371,0,25.16,2.812,310,18.38,16.87,91.16499,0.144,51.44,59.08,33.65,35.47
"2018-06-30 14:00:00",347329,0.298,117.9,22.79,73.57,359.8174,0,872.2694,0,22.17,2.844,243,18.49,16.89,46.88041,0.121,51.44,59.03,33.65,35.45
"2018-06-30 14:10:00",347330,0.291,302,22.39,75.34,689.2106,0,872.1912,0,25.12,2.812,302,18.55,16.88,106.8158,0.146,51.38,59.03,33.64,35.45
"2018-06-30 14:20:00",347331,0.349,301,22.81,71.58,523.7731,0,872.19,0,24.75,2.818,293,18.61,16.89,75.32849,0.137,51.38,59.03,33.64,35.45
"2018-06-30 14:30:00",347332,0.248,33.21,22.27,76.52,305.497,0,872.1485,0,22.47,2.842,282,18.69,16.89,39.97208,0.127,51.38,59.03,33.64,35.45
"2018-06-30 14:40:00",347333,0.287,312.9,22.16,77.05,460.4642,0,872.1357,0,23.39,2.834,324,18.73,16.9,64.93,0.139,51.33,58.97,33.62,35.44
"2018-06-30 14:50:00",347334,0.17,294.8,21.88,79.95,299.1889,0,872.0361,0,27.38,2.797,267,18.75,16.95,37.72109,0.126,51.33,58.97,33.62,35.44
"2018-06-30 15:00:00",347335,0.359,330.4,21.88,79.97,594.4789,0,872.1907,0,-10.13,3.156,170,18.84,16.97,80.35342,0.135,51.27,58.97,33.61,35.44
"2018-06-30 15:10:00",347336,0.459,24.16,22.51,75.51,745.3586,0,871.9995,0,27.74,2.788,275,18.89,16.95,90.19865,0.122,51.33,58.97,33.62,35.44
"2018-06-30 15:20:00",347337,0.569,110.5,23.06,73.74,465.9547,0,871.9664,0,30.37,2.764,296,18.96,16.96,52.12893,0.112,51.27,58.97,33.61,35.44
"2018-06-30 15:30:00",347338,0.306,100.6,22.26,77.4,192.5328,0,871.9542,0,25.16,2.817,354,19.02,16.96,21.63449,0.113,51.27,58.91,33.61,35.43
"2018-06-30 15:40:00",347339,0.396,138.7,21.85,79.15,230.3107,0,871.9485,0,22.05,2.849,277,19.06,16.99,31.41908,0.134,51.27,58.91,33.61,35.43
"2018-06-30 15:50:00",347340,0.221,140.5,21.63,81.5,145.0392,0,872.0123,0,20.16,2.868,249,19.09,17,18.50054,0.127,51.27,58.91,33.61,35.43
"2018-06-30 16:00:00",347341,0.128,130.7,21.05,88.3,137.6621,0,872.2081,0,-14.52,3.206,180,19.09,17.02,17.70473,0.127,51.27,58.91,33.61,35.43
"2018-06-30 16:10:00",347342,0.091,56.76,20.54,99.1,230.4129,0,872.2087,0,25.14,2.824,268,19.18,17.09,31.43803,0.136,51.21,58.91,33.6,35.43
"2018-06-30 16:20:00",347343,0.198,134,20.46,100,173.1369,0,872.2656,0,-12.8,3.192,190,19.26,17.1,22.75998,0.131,51.21,58.85,33.6,35.41
"2018-06-30 16:30:00",347344,0.177,92.5,20.36,100,140.5391,0,872.4173,0,-16.79,3.231,178,19.28,17.09,19.19781,0.137,51.16,58.85,33.58,35.41
"2018-06-30 16:40:00",347345,0.455,120.1,20.04,100,138.0355,0,872.4278,0,20.84,2.868,281,19.33,17.06,19.50098,0.141,51.16,58.85,33.58,35.41
"2018-06-30 16:50:00",347346,0.359,157.3,19.98,99.9,144.5322,0,872.2635,0,-10.74,3.174,177,19.33,17.07,21.14185,0.146,51.16,58.85,33.58,35.41
"2018-06-30 17:00:00",347347,0.277,89.3,19.85,96,132.2147,0,872.4384,0,-13.72,3.204,187,19.4,17.16,19.29634,0.146,51.16,58.85,33.58,35.41
"2018-06-30 17:10:00",347348,0.478,107.2,19.59,97.7,145.4441,0,872.7037,0,26.23,2.819,357,19.45,17.19,21.54354,0.148,51.1,58.79,33.57,35.4
"2018-06-30 17:20:00",347349,0.322,146.6,19.57,93.5,170.535,0,872.7269,0,23.88,2.841,281,19.42,17.19,26.2691,0.154,51.1,58.79,33.57,35.4
"2018-06-30 17:30:00",347350,0.559,78.27,19.63,98.5,138.063,0,873.0049,0,24.61,2.834,336,19.41,17.19,21.19869,0.153,51.1,58.79,33.57,35.4
"2018-06-30 17:40:00",347351,0.615,74.88,19.55,99.5,89.58688,0,872.9902,0,18.3,2.896,232,19.45,17.24,13.9493,0.155,51.1,58.79,33.57,35.4
"2018-06-30 17:50:00",347352,0.312,93.2,19.39,100,64.07934,0,872.967,0,19.75,2.882,242,19.47,17.31,9.697435,0.151,51.1,58.79,33.57,35.4
"2018-06-30 18:00:00",347353,0.331,106.4,19.23,100,35.99746,0,873.0365,0,23.79,2.844,337,19.52,17.3,5.525151,0.155,51.1,58.73,33.57,35.39
"2018-06-30 18:10:00",347354,0.304,88.6,19.09,100,14.01146,0,873.2197,0,18.79,2.893,287,19.55,17.28,2.675416,0.196,51.1,58.73,33.57,35.39
"2018-06-30 18:20:00",347355,0.361,94,18.87,100,20.28026,0,873.2387,0,18.32,2.899,274,19.57,17.28,3.493957,0.183,51.05,58.73,33.56,35.39
"2018-06-30 18:30:00",347356,0.613,83.2,18.62,100,19.63963,0,873.2261,0,18.15,2.902,248,19.57,17.28,3.459851,0.182,51.1,58.73,33.57,35.39
"2018-06-30 18:40:00",347357,0.433,78.56,18.4,100,6.901578,0,873.2892,0,18.67,2.898,237,19.58,17.3,1.674977,0.253,51.05,58.67,33.56,35.37
"2018-06-30 18:50:00",347358,0.451,70.29,18.26,100,3.32895,0,873.3925,0,-17.09,3.244,202,19.58,17.43,1.193705,0.381,51.05,58.67,33.56,35.37
"2018-06-30 19:00:00",347359,0.455,72.7,18.15,100,1.583904,0,873.4809,0,-12.91,3.205,189,19.58,17.45,0.74275,0.481,51.05,58.67,33.56,35.37
"2018-06-30 19:10:00",347360,0.54,124.5,17.96,100,0.8528715,0,873.6431,0,-12.74,3.204,179,19.58,17.44,0.6821174,0.963,51.05,58.73,33.56,35.39
"2018-06-30 19:20:00",347361,0.629,103.5,17.87,100,0.07860567,0,873.7253,0,18.87,2.898,260,19.57,17.38,0.6252743,0.948,51.05,58.61,33.56,35.36
"2018-06-30 19:30:00",347362,0.498,111.6,17.75,100,0,0,873.7231,0,-17,3.247,189,19.56,17.43,0.6214847,0,50.99,58.61,33.54,35.36
"2018-06-30 19:40:00",347363,0.343,64.91,17.71,100,0,0,873.7063,0,19.13,2.896,269,19.5,17.52,0.6555906,0,51.05,58.61,33.56,35.36
"2018-06-30 19:50:00",347364,0.371,54.49,17.7,100,0,0,873.721,0,21.03,2.878,265,19.45,17.54,0.6821174,0,50.99,58.67,33.54,35.37
"2018-06-30 20:00:00",347365,0.254,74.11,17.58,100,0,0,873.7168,0,-16.85,3.246,203,19.45,17.54,0.6821174,0,51.05,58.67,33.56,35.37
"2018-06-30 20:10:00",347366,0.302,95.2,17.41,100,0,0,873.7253,0,18.6,2.903,259,19.45,17.54,0.6593801,0,51.05,58.67,33.56,35.37
"2018-06-30 20:20:00",347367,0.071,63,17.4,100,0,0,873.9528,0,18.07,2.908,258,19.48,17.51,0.6972755,0,50.99,58.61,33.54,35.36
"2018-06-30 20:30:00",347368,0.166,27.26,17.4,100,0,0,873.9759,0,18.69,2.902,258,19.53,17.47,0.6821174,0,50.99,58.61,33.54,35.36
"2018-06-30 20:40:00",347369,0.275,90.4,17.4,100,0,0,874.0706,0,18.89,2.9,300,19.53,17.53,0.6972755,0,50.99,58.61,33.54,35.36
"2018-06-30 20:50:00",347370,0.03,93.5,17.39,100,0,0,874.0559,0,-15.33,3.232,198,19.41,17.55,0.6821174,0,50.99,58.61,33.54,35.36
"2018-06-30 21:00:00",347371,0.222,92.6,17.43,100,0,0,874.2307,0,19.53,2.894,302,19.36,17.62,0.6821174,0,50.99,58.61,33.54,35.36
"2018-06-30 21:10:00",347372,0.313,105,17.44,100,0,0,874.2602,0,-13.63,3.216,195,19.37,17.62,0.644222,0,50.99,58.56,33.54,35.35
"2018-06-30 21:20:00",347373,0.457,123,17.34,100,0,0,874.3508,0,-14.86,3.228,196,19.41,17.59,0.4774822,0,50.94,58.56,33.53,35.35
"2018-06-30 21:30:00",347374,0.218,118.8,17.28,100,0,0,874.4287,0,-13.99,3.22,196,19.41,17.54,0.5873788,0,50.94,58.56,33.53,35.35
"2018-06-30 21:40:00",347375,0.274,152.9,17.18,100,0,0,874.4603,0,-24.4,3.322,247,19.34,17.58,0.735171,0,50.94,58.56,33.53,35.35
"2018-06-30 21:50:00",347376,0.278,89.9,17.21,100,0,0,874.475,0,-16.34,3.243,195,19.28,17.62,0.9094898,0,50.94,58.5,33.53,35.33
"2018-06-30 22:00:00",347377,0.321,152.3,17.22,99.7,0,0,874.4814,0,18.17,2.907,243,19.3,17.64,1.167179,0,50.94,58.5,33.53,35.33
"2018-06-30 22:10:00",347378,0.178,116.5,17.49,93.9,0,0,874.3529,0,18.71,2.902,256,19.34,17.67,1.530975,0,50.94,58.5,33.53,35.33
"2018-06-30 22:20:00",347379,0.284,109.2,17.62,87.6,0,0,874.2307,0,-16.4,3.241,242,19.26,17.71,1.841717,0,50.94,58.5,33.53,35.33
"2018-06-30 22:30:00",347380,0.234,135.1,17.6,87.2,0,0,874.2307,0,25.97,2.832,480,19.2,17.71,1.784874,0,50.94,58.5,33.53,35.33
"2018-06-30 22:40:00",347381,0.311,164.7,17.48,87.4,0,0,874.2328,0,18.78,2.9,227,19.2,17.71,1.769716,0,50.94,58.44,33.53,35.32
"2018-06-30 22:50:00",347382,0.114,246.2,17.78,83.5,0.0235817,0,874.2286,0,18.34,2.903,206,19.24,17.7,2.084247,0.651,50.88,58.44,33.52,35.32
"2018-06-30 23:00:00",347383,0.031,284.8,17.87,83.9,0.872523,0,874.2307,0,27.98,2.81,247,19.26,17.66,1.853086,2.196,50.88,58.44,33.52,35.32
"2018-06-30 23:10:00",347384,0.219,81.2,17.73,87.6,0.6720784,0,874.2476,0,-16.72,3.245,189,19.2,17.69,1.530975,2.806,50.94,58.44,33.53,35.32
"2018-06-30 23:20:00",347385,0.092,62.05,17.63,89.7,0.3773072,0,874.018,0,27.07,2.819,321,19.15,17.72,1.462763,4.502,50.88,58.44,33.52,35.32
"2018-06-30 23:30:00",347386,0.146,295.4,17.99,84.4,0.8607321,0,873.978,0,-10.45,3.18,171,19.14,17.79,1.784874,2.247,50.94,58.38,33.53,35.31
"2018-06-30 23:40:00",347387,0.142,324.1,18.33,80.4,0.3065621,0,873.9738,0,20.94,2.875,224,19.19,17.8,1.875823,2.29,50.88,58.38,33.52,35.31
"2018-06-30 23:50:00",347388,0.116,18.22,18.45,80.3,1.017943,0,873.9654,0,-13.52,3.209,171,19.15,17.8,2.000878,2.076,50.88,58.38,33.52,35.31
